Regional Weather Roundup
Issued by NWS

Home | Current Version | Previous Version | Graphics & Text | Print | Product List | Glossary Off
Versions: 1 2 3 4 5 6 7 8 9 10 11 12 13 14 15 16 17 18 19 20 21 22 23 24 25 26 27 28 29 30 31 32 33 34 35 36 37 38 39 40 41 42 43 44 45 46 47 48

000
ASUS43 KDMX 291007
RWRIA

WEATHER ROUNDUP FOR IOWA
NATIONAL WEATHER SERVICE DES MOINES IA
500 AM CDT FRI MAY 29 2015

NOTE: "FAIR" INDICATES FEW OR NO CLOUDS BELOW 12,000 FEET WITH NO
SIGNIFICANT WEATHER AND/OR OBSTRUCTIONS TO VISIBILITY.

* - THESE STATIONS ARE NOT NWS STATIONS...THUS NOT UNDER NWS
QUALITY CONTROL.  THEY ALSO DO NOT REPORT WEATHER SUCH
AS PRECIPITATION OR FOG.

IAZ001>003-012>014-020>022-031>034-043>046-291100-
   NORTHWEST IOWA

CITY           SKY/WX    TMP DP  RH WIND       PRES   REMARKS
CARROLL *      MOCLDY    64  63  94 S13       29.88F
CHEROKEE *     MOCLDY    64  64 100 S8        29.86F
DENISON *      PTCLDY    64  64 100 S13       29.85F
LE MARS *        N/A     66  64  94 SW7       29.85F
ORANGE CITY *  CLOUDY    64  63  94 W6        29.87R
SHELDON *      LGT RAIN  66  64  94 SW8G16    29.86R
SIOUX CITY     LGT RAIN  66  63  90 E7        29.84F
SPENCER        MOCLDY    65  63  93 S7        29.87S
STORM LAKE *   MOCLDY    63  63 100 S9        29.88F
$$

IAZ055>058-069>071-079>083-090>094-291100-
   SOUTHWEST IOWA

CITY           SKY/WX    TMP DP  RH WIND       PRES   REMARKS
ATLANTIC *     MOCLDY    64  64 100 S5        29.90F
AUDUBON *      PTCLDY    64  61  88 S10       29.91F
CLARINDA *     PTCLDY    63  63 100 S3        29.92F
COUNCIL BLFS * MOCLDY    63  63 100 S12       29.89S
CRESTON *      MOCLDY    63  63 100 SE8       29.92F
HARLAN  *      PTCLDY    64  64 100 S9        29.91F
LAMONI         FOG       65  62  90 S5        29.94F VSB 1/4
RED OAK *      PTCLDY    64  64 100 S9        29.90F
SHENANDOAH *   CLEAR     64  64 100 S9        29.90S
$$

IAZ047>049-059>061-072>074-084-291100-
   CENTRAL IOWA

CITY           SKY/WX    TMP DP  RH WIND       PRES   REMARKS
AMES           MOCLDY    60  59  96 S5        29.93S
ANKENY *       MOCLDY    61  61 100 CALM      29.93S
CHARITON *     PTCLDY    63  63 100 W5        29.94S FOG
DES MOINES     PTCLDY    63  61  93 S8        29.93S
GRINNELL*      CLOUDY    64  61  88 SW5       29.94S
KNOXVILLE *    CLOUDY    63  61  94 W3        29.92F
MARSHALLTOWN   MOCLDY    63  61  93 S6        29.92F
PELLA *        CLOUDY    63  63 100 CALM      29.94S
PERRY *        CLOUDY    63  61  94 S7        29.92S
$$

IAZ004>006-015-016-023>025-035-036-291100-
   NORTH CENTRAL IOWA

CITY           SKY/WX    TMP DP  RH WIND       PRES   REMARKS
ALGONA *       LGT RAIN  63  63 100 S13G23    29.90F
CLARION *      PTCLDY    63  61  94 S9        29.91S
ESTHERVILLE    CLOUDY    65  62  90 S9        29.87S
FORT DODGE *   MOCLDY    64  61  88 S12       29.91S
MASON CITY     CLOUDY    65  63  93 S9        29.91F
FOREST CITY *  MOCLDY    63  63 100 S9        29.90F
IOWA FALLS *     N/A     63  61  94 S6        29.93S
$$

IAZ007>011-017>019-026>030-037>042-050>054-066-291100-
   NORTHEAST IOWA

CITY           SKY/WX    TMP DP  RH WIND       PRES   REMARKS
CEDAR RAPIDS   CLOUDY    64  63  96 SE6       29.94F
CHARLES CITY * CLOUDY    64  64 100 S9        29.93F
CLINTON *      MOCLDY    66  59  77 SE7       29.99S
DECORAH *      MOCLDY    64  61  88 S6        29.93F
DUBUQUE        LGT RAIN  63  62  97 SE5       29.98F FOG
MONTICELLO *   MOCLDY    64  64 100 SE6       29.96S
OELWEIN *      CLOUDY    64  63  94 S9        29.94F
WATERLOO       CLOUDY    64  62  93 S8        29.93S
$$

IAZ064-065-067-068-078-291100-
   EAST CENTRAL IOWA

CITY           SKY/WX    TMP DP  RH WIND       PRES   REMARKS
DAVENPORT      CLOUDY    68  62  81 S8        29.97F
IOWA CITY      MOCLDY    65  63  93 SE3       29.96F
MT. PLEASANT * CLOUDY    64  64 100 SE6       29.95F
MUSCATINE *    PTCLDY    66  63  88 CALM      29.96S
QUAD CITIES    CLOUDY    68  63  84 S5        29.96F
$$

IAZ062-063-075>077-085>089-095>099-291100-
   SOUTHEAST IOWA

CITY           SKY/WX    TMP DP  RH WIND       PRES   REMARKS
BURLINGTON     CLOUDY    68  66  93 S7        29.95F
FAIRFIELD *    CLOUDY    64  63  94 E5        29.94F
FORT MADISON * MOCLDY    66  64  94 SE6       29.96S
KEOKUK *       MOCLDY    66  64  94 SE5       29.94F
OSKALOOSA *    CLOUDY    64  63  94 SE6       29.94S
CENTERVILLE *  CLEAR     63  63 100 CALM      29.95S
OTTUMWA        CLOUDY    64  63  96 SE6       29.93F
WASHINGTON *   CLOUDY    64  64 100 CALM      29.96F
$$

ABBREVIATIONS USED IN REMARKS
   TC - TEMPERATURES IN CELSIUS
  WCI - WIND CHILL INDEX
   HX - HEAT INDEX
  VSB - VISIBILITY
$$




USA.gov is the U.S. government's official web portal to all federal, state and local government web resources and services.